EW9253 Weather Reports


time (UTC)temp
F
wind
direction
speed
knots
gust
knots
rain 1hr
in
rain 24hr
in
rain mn
in
humidity
%
barometer
mb
20260906173009 77 93 2.6 10.4 0.00 0.00 0.00 69 1020.2
20260906171508 76 162 1.7 7.0 0.00 0.00 0.00 68 1020.5
20260906170006 75 311 2.6 7.8 0.00 0.00 0.00 66 1020.8
20260906164504 75 263 3.5 7.8 0.00 0.00 0.00 67 1020.8
20260906163002 75 236 3.5 6.1 0.00 0.00 0.00 66 1020.8
20260906161559 75 212 2.6 5.2 0.00 0.00 0.00 69 1020.8
20260906160057 73 227 1.7 7.0 0.00 0.00 0.00 70 1020.8
20260906154555 73 75 1.7 6.1 0.00 0.00 0.00 69 1020.9
20260906153023 72 207 1.7 3.5 0.00 0.00 0.00 69 1020.8
20260906151518 71 205 0.9 7.0 0.00 0.00 0.00 75 1020.9
20260906150013 70 162 2.6 4.3 0.00 0.00 0.00 77 1020.9
20260906144511 69 130 1.7 7.0 0.00 0.00 0.00 78 1020.9
20260906143012 68 113 3.5 7.0 0.00 0.00 0.00 80 1020.7
20260906141514 67 94 4.3 8.7 0.00 0.00 0.00 82 1020.6
20260906140004 67 92 2.6 6.1 0.00 0.00 0.00 84 1020.8
20260906134503 66 120 1.7 5.2 0.00 0.00 0.00 86 1020.8
20260906133059 64 92 1.7 5.2 0.00 0.00 0.00 89 1020.9
20260906131555 63 113 0.0 0.0 0.00 0.00 0.00 96 1020.9
20260906130123 62 115 0.0 0.0 0.00 0.00 0.00 98 1020.8
20260906124557 61 115 0.0 0.0 0.00 0.00 0.00 98 1020.7
20260906123052 59 115 0.0 0.0 0.00 0.00 0.00 98 1020.5
20260906121603 58 115 0.0 0.0 0.00 0.00 0.00 98 1020.3
20260906114547 56 115 0.0 0.0 0.00 0.00 0.00 98 1020.2
20260906113051 57 115 0.0 0.0 0.00 0.00 0.00 98 1020.0
20260906111544 58 115 0.0 0.0 0.00 0.00 0.00 98 1020.1
20260906110040 58 115 0.0 0.0 0.00 0.00 0.00 98 1019.7
20260906104539 59 115 0.0 0.0 0.00 0.00 0.00 98 1019.5
20260906103049 59 115 0.0 0.0 0.00 0.00 0.00 98 1019.3
20260906101538 59 115 0.0 0.0 0.00 0.00 0.00 98 1019.4
20260906100037 59 115 0.0 0.0 0.00 0.00 0.00 98 1019.1
20260906094536 59 115 0.0 0.0 0.00 0.00 0.00 98 1019.0
20260906093039 59 115 0.0 0.0 0.00 0.00 0.00 97 1019.0
20260906091535 60 115 0.0 0.0 0.00 0.00 0.00 98 1019.1
20260906090034 59 115 0.0 0.0 0.00 0.00 0.00 97 1019.1
20260906084530 60 115 0.0 0.0 0.00 0.00 0.00 98 1019.1
20260906083029 62 115 0.0 0.0 0.00 0.00 0.00 98 1019.2
20260906081528 61 115 0.0 0.0 0.00 0.00 0.00 98 1019.1
20260906080029 62 115 0.0 0.0 0.00 0.00 0.00 97 1019.1
20260906074525 62 115 0.0 0.0 0.00 0.00 0.00 97 1019.1
20260906073022 62 115 0.0 0.0 0.00 0.00 0.00 97 1019.0
20260906071521 63 115 0.0 0.0 0.00 0.00 0.00 97 1019.1
20260906070019 63 115 0.0 0.0 0.00 0.00 0.00 97 1019.2
20260906064529 63 115 0.0 0.0 0.00 0.00 0.00 97 1019.3
20260906063017 63 115 0.0 0.0 0.00 0.00 0.00 97 1019.1
20260906061522 63 115 0.0 0.0 0.00 0.00 0.00 97 1019.2
20260906060013 63 115 0.0 0.0 0.00 0.00 0.00 97 1019.4
20260906054524 63 115 0.0 0.0 0.00 0.00 0.00 97 1019.2
20260906053010 64 115 0.0 0.0 0.00 0.00 0.00 98 1019.1
20260906051508 63 115 0.0 0.0 0.00 0.00 0.00 97 1018.9
20260906050009 63 115 0.0 0.0 0.00 0.00 0.00 97 1018.8
20260906044508 63 115 0.0 0.0 0.00 0.00 0.00 97 1018.9
20260906043018 63 115 0.0 0.0 0.00 0.00 0.00 97 1018.6
20260906041505 63 115 0.0 0.0 0.00 0.00 0.00 97 1018.5
20260906040003 63 115 0.0 0.0 0.00 0.00 0.00 97 1018.1
20260906034501 63 115 0.0 0.0 0.00 0.00 0.00 97 1017.9
20260906033101 63 115 0.0 0.0 0.00 0.00 0.00 96 1017.8
20260906031603 64 115 0.0 0.0 0.00 0.00 0.00 97 1017.7
20260906030100 64 115 0.0 0.0 0.00 0.00 0.00 97 1017.3
20260906024558 64 115 0.0 0.0 0.00 0.00 0.00 97 1017.3
20260906023059 64 115 0.0 0.0 0.00 0.00 0.00 97 1017.4
20260906021553 63 115 0.0 0.0 0.00 0.00 0.00 96 1017.1
20260906020050 64 115 0.0 0.0 0.00 0.00 0.00 95 1016.9
20260906014553 64 115 0.0 0.0 0.00 0.00 0.00 95 1016.8
20260906013048 65 115 0.0 0.0 0.00 0.00 0.00 95 1016.9
20260906011548 66 115 0.0 0.0 0.00 0.00 0.00 94 1016.7
20260906010047 67 115 0.0 0.0 0.00 0.00 0.00 92 1016.5
20260906004546 67 115 0.0 0.0 0.00 0.00 0.00 92 1016.3
20260906003046 69 115 0.0 0.0 0.00 0.00 0.00 89 1016.3
20260906001546 69 115 0.0 0.0 0.00 0.00 0.00 89 1016.4
20260906000045 70 115 0.0 1.7 0.00 0.00 0.00 87 1016.5
20260905234545 71 115 0.0 0.0 0.00 0.00 0.00 86 1016.3
20260905233045 71 115 0.0 0.9 0.00 0.00 0.00 85 1016.2
20260905231545 72 115 0.9 1.7 0.00 0.00 0.00 84 1016.2
20260905230043 72 115 0.9 1.7 0.00 0.00 0.00 84 1016.5
20260905224542 72 115 0.9 1.7 0.00 0.00 0.00 83 1016.4
20260905223041 73 115 0.0 2.6 0.00 0.00 0.00 83 1016.4
20260905221540 73 115 0.0 1.7 0.00 0.00 0.00 82 1016.5
20260905220040 76 116 1.7 3.5 0.00 0.00 0.00 75 1016.5
20260905214538 75 338 2.6 4.3 0.00 0.00 0.00 75 1016.7
20260905213036 76 19 0.0 3.5 0.00 0.00 0.00 77 1016.9
20260905211535 75 5 0.9 3.5 0.00 0.00 0.00 77 1017.0
20260905210032 74 5 1.7 4.3 0.00 0.00 0.00 79 1017.1
20260905204530 75 26 0.9 3.5 0.00 0.00 0.00 80 1017.1
20260905203030 74 109 0.0 5.2 0.00 0.00 0.00 83 1017.3
20260905201530 74 42 1.7 3.5 0.00 0.00 0.00 81 1017.2
20260905200034 75 55 2.6 5.2 0.00 0.00 0.00 80 1017.1
20260905194527 74 111 3.5 4.3 0.00 0.00 0.00 80 1017.3
20260905193028 73 44 0.9 2.6 0.00 0.00 0.00 82 1017.3
20260905191535 73 119 0.9 5.2 0.00 0.00 0.00 82 1017.3
20260905190033 73 103 0.9 5.2 0.00 0.00 0.00 82 1017.4
20260905184528 73 140 1.7 5.2 0.00 0.00 0.00 82 1017.3
20260905183020 72 87 0.9 5.2 0.00 0.00 0.00 83 1017.3
20260905181520 73 117 1.7 4.3 0.00 0.00 0.00 83 1017.5
20260905180021 72 63 1.7 2.6 0.00 0.00 0.00 84 1017.4
20260905174524 72 98 0.9 5.2 0.00 0.00 0.00 85 1017.4